User: anonymous
Location: Caltech
(34.1382°N, 118.1253°W)
Time: 17:46:02
(UTC-07:00)
Language:

Cosmos 1697 Rocket - Orbit

View from above orbital plane
View from above orbital plane
View from above satellite
View from above satellite

Ground track
Ground track

The orbit data is extracted from the following two-line orbital elements,

1 16182U 85097B   14114.00573065  .00000288  00000-0  16961-3 0  2520
2 16182 071.0036 267.8026 0007200 010.2726 120.9439 14.16107429473383
Epoch (UTC): 24 April 2014 00:08:15
Eccentricity: 0.0007200
inclination: 71.0036°
perigee height: 833 km
apogee height: 844 km
right ascension of ascending node: 267.8026°
argument of perigee: 10.2726°
revolutions per day: 14.16107429
mean anomaly at epoch: 120.9439°
orbit number at epoch: 47338

The dashed part of the orbit path shows where the satellite is in the earth's shadow,  

DLR